Location: Jabiru
(12.6667°S, 132.8333°E)
Time: 09:04:12
(UTC+09:30)

Envisat - Pass Details

Date: 28 October 2019
Orbit: 764 x 766 km, 98.1° (Epoch: 16 November)

Event Time Altitude Azimuth Distance (km) Brightness Sun altitude
Rises 20:04:44 0° 190° (S) 3,244 6.6 -21.1°
Reaches altitude 10° 20:07:28 10° 203° (SSW) 2,313 6.0 -21.7°
Maximum altitude 20:11:26 23° 255° (WSW) 1,580 5.4 -22.7°
Drops below altitude 10° 20:15:23 10° 306° (NW) 2,297 5.9 -23.6°
Sets 20:18:05 0° 320° (NW) 3,217 6.5 -24.2°
